• In Hungary
  • List of Countries
  • For 7 days
  • Water Temperature
  • Satellite Maps
  • Weather Map
  • News
  • Weather Widgets
  • user-avatar
    Login

    Hourly Weather Narwik

    Today, 22 September, Saturday

    Time Temperature Precipitation Wind Pressure Humidity
    00:00 +8°C° 0.2 mm 3 mps 731 mmHg 84%
    01:00 +8°C° 0 mm 3 mps 730 mmHg 85%
    02:00 +8°C° 0.5 mm 3 mps 729 mmHg 87%
    03:00 +8°C° 0.5 mm 3 mps 728 mmHg 89%
    04:00 +8°C° 0.5 mm 3 mps 727 mmHg 91%
    05:00 +8°C° 1.1 mm 3 mps 726 mmHg 92%
    06:00 +8°C° 1.1 mm 3 mps 725 mmHg 92%
    07:00 +8°C° 1.1 mm 3 mps 723 mmHg 93%
    08:00 +9°C° 0.5 mm 3 mps 723 mmHg 91%
    09:00 +10°C° 0.5 mm 3 mps 722 mmHg 88%
    10:00 +11°C° 0.5 mm 4 mps 721 mmHg 86%
    11:00 +11°C° 0.1 mm 4 mps 721 mmHg 80%
    12:00 +10°C° 0.1 mm 5 mps 721 mmHg 74%
    13:00 +11°C° 0.1 mm 6 mps 720 mmHg 69%
    14:00 +10°C° 0.1 mm 5 mps 720 mmHg 73%
    15:00 +11°C° 0.1 mm 4 mps 719 mmHg 77%
    16:00 +11°C° 0.1 mm 3 mps 719 mmHg 81%
    17:00 +10°C° 0.3 mm 3 mps 719 mmHg 85%
    18:00 +9°C° 0.3 mm 2 mps 718 mmHg 89%
    19:00 +9°C° 0.3 mm 2 mps 718 mmHg 92%
    20:00 +9°C° 0.4 mm 2 mps 718 mmHg 92%
    21:00 +8°C° 0.4 mm 2 mps 718 mmHg 91%
    22:00 +8°C° 0.4 mm 3 mps 718 mmHg 91%
    23:00 +8°C° 0.5 mm 3 mps 718 mmHg 91%

    Tomorrow, 23 September, Sunday

    Time Temperature Precipitation Wind Pressure Humidity
    00:00 +8°C° 0.5 mm 3 mps 718 mmHg 91%
    01:00 +8°C° 0.5 mm 3 mps 718 mmHg 91%
    02:00 +8°C° 0.6 mm 3 mps 718 mmHg 92%
    03:00 +7°C° 0.6 mm 4 mps 719 mmHg 92%
    04:00 +7°C° 0.6 mm 4 mps 719 mmHg 93%
    05:00 +6°C° 0.9 mm 5 mps 719 mmHg 93%
    06:00 +6°C° 0.9 mm 5 mps 719 mmHg 93%
    07:00 +5°C° 0.9 mm 6 mps 720 mmHg 93%
    08:00 +7°C° 0.8 mm 5 mps 720 mmHg 93%
    09:00 +7°C° 0.8 mm 5 mps 721 mmHg 92%
    10:00 +7°C° 0.8 mm 5 mps 722 mmHg 92%
    11:00 +7°C° 1.5 mm 6 mps 722 mmHg 92%
    12:00 +5°C° 1.5 mm 8 mps 723 mmHg 92%
    13:00 +5°C° 1.5 mm 10 mps 724 mmHg 92%
    14:00 +4°C° 0.9 mm 11 mps 725 mmHg 91%
    15:00 +3°C° 0.9 mm 11 mps 726 mmHg 90%
    16:00 +3°C° 0.9 mm 12 mps 726 mmHg 90%
    17:00 +3°C° 1.2 mm 12 mps 727 mmHg 90%
    18:00 +3°C° 1.2 mm 13 mps 728 mmHg 90%
    19:00 +1°C° 1.2 mm 13 mps 729 mmHg 91%
    20:00 +2°C° 1.6 mm 12 mps 729 mmHg 91%
    21:00 +2°C° 1.6 mm 12 mps 730 mmHg 90%
    22:00 +2°C° 1.6 mm 11 mps 731 mmHg 90%
    23:00 +2°C° 0.9 mm 11 mps 732 mmHg 90%

    Day after tomorrow, 24 September, Monday

    Time Temperature Precipitation Wind Pressure Humidity
    00:00 +2°C° 0.9 mm 11 mps 733 mmHg 90%
    01:00 +2°C° 0.9 mm 11 mps 734 mmHg 90%
    02:00 +2°C° 0.8 mm 11 mps 735 mmHg 90%
    03:00 +2°C° 0.8 mm 10 mps 736 mmHg 90%
    04:00 +2°C° 0.8 mm 10 mps 737 mmHg 90%
    05:00 +1°C° 0.9 mm 10 mps 738 mmHg 90%
    06:00 +1°C° 0.9 mm 10 mps 739 mmHg 89%
    07:00 0°C° 0.9 mm 9 mps 740 mmHg 89%
    08:00 0°C° 0.4 mm 9 mps 741 mmHg 88%
    09:00 0°C° 0.4 mm 9 mps 742 mmHg 86%
    10:00 -1°C° 0.4 mm 9 mps 743 mmHg 85%
    11:00 -1°C° 0.3 mm 9 mps 744 mmHg 85%
    12:00 -1°C° 0.3 mm 9 mps 745 mmHg 84%
    13:00 -1°C° 0.3 mm 9 mps 745 mmHg 84%
    14:00 -1°C° 0.3 mm 9 mps 746 mmHg 84%
    15:00 -1°C° 0.3 mm 8 mps 746 mmHg 84%
    16:00 -1°C° 0.3 mm 8 mps 746 mmHg 84%
    17:00 -1°C° 0.3 mm 7 mps 747 mmHg 86%
    18:00 -1°C° 0.3 mm 6 mps 747 mmHg 87%
    19:00 -1°C° 0.3 mm 6 mps 747 mmHg 88%
    20:00 -1°C° 0.4 mm 6 mps 747 mmHg 88%
    21:00 -1°C° 0.4 mm 6 mps 747 mmHg 88%
    22:00 -1°C° 0.4 mm 6 mps 748 mmHg 87%
    23:00 -1°C° 0.1 mm 6 mps 747 mmHg 88%

    25 September, Tuesday

    Time Temperature Precipitation Wind Pressure Humidity
    00:00 0°C° 0.1 mm 5 mps 747 mmHg 88%
    01:00 0°C° 0.1 mm 4 mps 747 mmHg 89%
    02:00 0°C° 0.3 mm 4 mps 747 mmHg 89%
    03:00 0°C° 0.3 mm 4 mps 746 mmHg 90%
    04:00 0°C° 0.3 mm 4 mps 746 mmHg 91%
    05:00 0°C° 0.2 mm 4 mps 745 mmHg 91%
    06:00 +1°C° 0.2 mm 4 mps 744 mmHg 90%
    07:00 +1°C° 0.2 mm 4 mps 743 mmHg 90%
    08:00 +1°C° 0.9 mm 5 mps 742 mmHg 90%
    09:00 +2°C° 0.9 mm 5 mps 742 mmHg 91%
    10:00 +2°C° 0.9 mm 6 mps 742 mmHg 91%
    11:00 +2°C° 0.4 mm 6 mps 742 mmHg 91%
    12:00 +3°C° 0.4 mm 7 mps 742 mmHg 90%
    13:00 +2°C° 0.4 mm 8 mps 742 mmHg 90%
    14:00 +2°C° 0.6 mm 8 mps 742 mmHg 90%
    15:00 +2°C° 0.6 mm 8 mps 742 mmHg 90%
    16:00 +2°C° 0.6 mm 8 mps 742 mmHg 90%
    17:00 +2°C° 1 mm 8 mps 742 mmHg 91%
    18:00 +3°C° 1 mm 7 mps 742 mmHg 92%
    19:00 +3°C° 1 mm 7 mps 742 mmHg 92%
    20:00 +3°C° 0.4 mm 6 mps 742 mmHg 92%
    21:00 +4°C° 0.4 mm 4 mps 743 mmHg 92%
    22:00 +3°C° 0.4 mm 3 mps 743 mmHg 91%
    23:00 +3°C° 0.1 mm 3 mps 743 mmHg 91%

    26 September, Wednesday

    Time Temperature Precipitation Wind Pressure Humidity
    00:00 +3°C° 0.1 mm 3 mps 742 mmHg 92%
    01:00 +2°C° 0.1 mm 3 mps 742 mmHg 92%
    02:00 +2°C° 0 mm 3 mps 741 mmHg 91%
    03:00 +2°C° 0 mm 3 mps 740 mmHg 90%
    04:00 +2°C° 0 mm 3 mps 740 mmHg 89%
    05:00 +1°C° 0.1 mm 4 mps 738 mmHg 88%
    06:00 +1°C° 0.1 mm 4 mps 736 mmHg 87%
    07:00 +1°C° 0.1 mm 4 mps 735 mmHg 87%
    08:00 +1°C° 0.8 mm 5 mps 733 mmHg 88%
    09:00 +2°C° 0.8 mm 5 mps 732 mmHg 89%
    10:00 +2°C° 0.8 mm 5 mps 730 mmHg 90%
    11:00 +3°C° 1 mm 5 mps 730 mmHg 91%
    12:00 +3°C° 1 mm 5 mps 730 mmHg 92%
    13:00 +5°C° 1 mm 5 mps 729 mmHg 92%
    14:00 +3°C° 0.2 mm 5 mps 729 mmHg 91%
    15:00 +4°C° 0.2 mm 4 mps 728 mmHg 90%
    16:00 +4°C° 0.2 mm 4 mps 727 mmHg 89%
    17:00 +3°C° 0.1 mm 4 mps 726 mmHg 88%
    18:00 +3°C° 0.1 mm 4 mps 725 mmHg 88%
    19:00 +1°C° 0.1 mm 4 mps 724 mmHg 87%
    20:00 +1°C° 0.7 mm 4 mps 723 mmHg 89%
    21:00 +3°C° 0.7 mm 4 mps 723 mmHg 91%
    22:00 +3°C° 0.7 mm 4 mps 722 mmHg 92%
    23:00 +3°C° 0.3 mm 3 mps 722 mmHg 92%

    27 September, Thursday

    Time Temperature Precipitation Wind Pressure Humidity
    00:00 +3°C° 0.3 mm 3 mps 722 mmHg 92%
    01:00 +4°C° 0.3 mm 2 mps 721 mmHg 92%
    02:00 +4°C° 0.4 mm 2 mps 721 mmHg 92%
    03:00 +4°C° 0.4 mm 2 mps 721 mmHg 92%
    04:00 +4°C° 0.4 mm 2 mps 721 mmHg 92%
    05:00 +4°C° 0.4 mm 2 mps 722 mmHg 92%
    06:00 +4°C° 0.4 mm 2 mps 722 mmHg 93%
    07:00 +4°C° 0.4 mm 2 mps 723 mmHg 93%
    08:00 +4°C° 0.3 mm 2 mps 724 mmHg 94%
    09:00 +5°C° 0.3 mm 2 mps 724 mmHg 94%
    10:00 +6°C° 0.3 mm 1 mps 725 mmHg 95%
    11:00 +6°C° 0.4 mm 1 mps 726 mmHg 95%
    12:00 +6°C° 0.4 mm 1 mps 727 mmHg 95%
    13:00 +6°C° 0.4 mm 1 mps 728 mmHg 95%
    14:00 +5°C° 0.5 mm 2 mps 728 mmHg 95%
    15:00 +5°C° 0.5 mm 2 mps 729 mmHg 95%
    16:00 +5°C° 0.5 mm 2 mps 730 mmHg 95%
    17:00 +5°C° 0.4 mm 2 mps 731 mmHg 95%
    18:00 +5°C° 0.4 mm 2 mps 731 mmHg 95%
    19:00 +4°C° 0.4 mm 2 mps 732 mmHg 94%
    20:00 +5°C° 0.3 mm 2 mps 733 mmHg 95%
    21:00 +4°C° 0.3 mm 3 mps 734 mmHg 95%
    22:00 +4°C° 0.3 mm 3 mps 734 mmHg 95%
    23:00 +4°C° 0.8 mm 3 mps 735 mmHg 95%
    Show more